Content
SEND FEEDBACK

Daily
Averages
Monthly
Summary
United States of America

NEW YORK - CENTRAL PARK, NEW YORK


Home > North America > United States > New York
Elevation: 14 feet     Latitude: 40 47N     Longitude: 073 58W

WEATHER
 
SELECT A DAY
Number of Records: 148,358;   Date Range: 11/1/95 - 9/20/14
 
SHARE

PRINT THIS DATA

[ ← Previous Day ]
WEATHER ALMANAC - APRIL 20, 2013
[ Next Day → ]
[ °C ]   °F
Weather ElementAverageHighLow
Temperature53.5 °F60.1 °F (3:51 pm)46.9 °F (11:51 pm)
Dewpoint33.8 °F53.1 °F (12:51 am)21.9 °F (11:51 pm)
Humidity51.4 %86 % (3:51 am)26 % (5:51 pm)
Barometer29.94 in30.30 in (11:51 pm)29.70 in (12:51 am)
Wind Speed8.6 mph12.7 mph (5:51 am)
Wind Gust27.6 mph (10:51 am)
Weather ElementAverage
Visibility9.7 mi
Wind DirectionSSW (202.2 °)

Weather ElementTotal
Precipitation0.09 in
Heating Degree Days11.5 (Base 65)
Growing Degree Days3.5 (Base 50)
Averaged from 27 records on April 20, 2013
WEATHER CONDITIONS BREAKOUT
WIND DIRECTION BREAKOUT
WEATHER BY HOUR - APRIL 20, 2013
[ °C ]   °F
Local TimeTemperatureDewpointHumidityBarometerVisibilityWind DirectionWind SpeedGust SpeedPrecipitationEventsConditions
12:51 AM59.0 °F53.1 °F81 %29.70 in10.0 miNorth0.01 inRainLight Rain
1:04 AM57.0 °F52.0 °F83 %29.74 in9.0 miNW (310°)8.1 mph0.00 inRainLight Rain
1:15 AM55.0 °F48.9 °F80 %29.75 in10.0 miVariable6.9 mph17.3 mph0.01 inRainLight Rain
1:28 AM54.0 °F48.0 °F80 %29.74 in10.0 miWest (280°)9.2 mph18.4 mph0.01 inOvercast
1:51 AM54.0 °F44.1 °F69 %29.72 in10.0 miWNW (300°)9.2 mph0.01 inOvercast
2:51 AM52.0 °F45.0 °F77 %29.74 in7.0 miWest (270°)8.1 mph0.00 inRainLight Rain
3:51 AM51.1 °F46.9 °F86 %29.74 in6.0 miWNW (290°)6.9 mph0.04 inRainLight Rain
4:51 AM51.1 °F46.9 °F86 %29.76 in10.0 miVariable6.9 mph0.01 inOvercast
5:51 AM51.1 °F41.0 °F68 %29.83 in10.0 miWNW (290°)12.7 mph24.2 mph0.00 inOvercast
6:51 AM50.0 °F39.9 °F68 %29.86 in10.0 miVariable3.5 mphOvercast
7:51 AM51.1 °F37.9 °F61 %29.88 in10.0 miWest (280°)8.1 mph20.7 mphOvercast
8:51 AM51.1 °F30.9 °F46 %29.88 in10.0 miWNW (290°)10.4 mph26.5 mphClear
9:51 AM51.1 °F28.9 °F43 %29.92 in10.0 miWest (280°)12.7 mph24.2 mphClear
10:51 AM52.0 °F26.1 °F37 %29.96 in10.0 miWest (280°)11.5 mph27.6 mphClear
11:51 AM51.1 °F26.1 °F38 %29.99 in10.0 miWest (280°)9.2 mph17.3 mphClear
12:51 PM52.0 °F27.0 °F38 %29.97 in10.0 miNorthClear
1:51 PM55.9 °F28.9 °F36 %29.96 in10.0 miWest (260°)9.2 mph20.7 mphPartly Cloudy
2:51 PM55.9 °F26.1 °F32 %29.97 in10.0 miWest (270°)9.2 mph17.3 mphPartly Cloudy
3:51 PM60.1 °F27.0 °F28 %29.98 in10.0 miVariable6.9 mphPartly Cloudy
4:51 PM59.0 °F25.0 °F27 %30.00 in10.0 miWNW (300°)9.2 mph19.6 mphPartly Cloudy
5:51 PM57.9 °F23.0 °F26 %30.04 in10.0 miNorthClear
6:51 PM55.9 °F23.0 °F28 %30.07 in10.0 miWest (280°)9.2 mphClear
7:51 PM54.0 °F24.1 °F31 %30.12 in10.0 miWNW (290°)10.4 mph20.7 mphClear
8:51 PM53.1 °F24.1 °F32 %30.16 in10.0 miWNW (290°)9.2 mph18.4 mphClear
9:51 PM52.0 °F23.0 °F32 %30.22 in10.0 miWNW (300°)8.1 mph21.9 mphMostly Cloudy
10:51 PM50.0 °F25.0 °F38 %30.25 in10.0 miCalmClear
11:51 PM46.9 °F21.9 °F37 %30.30 in10.0 miNW (320°)11.5 mph19.6 mphClear
Hourly data recorded from KNYC, located miles away from New York - Central Park, New York







STORIES FROM OUR PARTNERS